[[{"header":{"parameterUnit":"m.s-1","parameterCategory":1,"la1":30.2991,"la2":30.254,"lo1":-89.0895,"lo2":-89.0444,"dy":0.0017,"dx":0.0017,"nx":28,"ny":28,"refTime":"2024-03-10T21:00:00:Z","depth":0,"parameterNumber":2,"parameterNumberName":"U-component_of_WINDS"},"data":[0,0,0,0,0,0,0,0,0,0,0,0,0,0,0,0,0,0,0,0,0,0,0,0,0,0,0,0,0,0,0,0,0,0,0,0,0,0,0,0,0,0,0,0,0,0,0,0,0,0,0,0,0,0,0,0,0,0,-2.23,-2.23,0,-2.2258,-2.2257,-2.2257,-2.2172,-2.217,-2.2169,-2.2167,-2.2126,-2.2126,-2.2127,0,0,0,0,0,0,0,0,0,0,0,0,0,-2.2311,-2.2311,-2.2301,-2.23,-2.2299,-2.2258,-2.2257,-2.2257,-2.2172,-2.217,-2.2168,-2.2166,-2.2125,-2.2126,-2.2127,0,0,0,0,0,0,0,0,0,0,0,0,0,-2.2292,-2.2311,-2.2301,-2.2252,-2.2247,-2.2258,-2.2257,-2.2257,-2.2173,-2.217,-2.2168,-2.2165,-2.2125,-2.2126,-2.2127,-2.2181,0,0,-2.2129,-2.2129,0,0,0,0,0,0,0,0,-2.2293,-2.2291,-2.226,-2.2256,-2.225,-2.2218,-2.2246,-2.2232,-2.2173,-2.2201,-2.2167,-2.2164,-2.2158,-2.2156,-2.2154,-2.218,-2.2178,-2.2129,-2.2129,-2.213,-2.213,0,0,0,0,0,0,0,-2.2294,-2.2293,-2.2284,-2.226,-2.2254,-2.2233,-2.2228,-2.2243,-2.2195,-2.2199,-2.2192,-2.2188,-2.2155,-2.2153,-2.2152,-2.2177,-2.2129,-2.2129,-2.213,-2.213,-2.2246,-2.2249,0,0,0,0,0,0,-2.2302,-2.2294,-2.2285,-2.2282,-2.2266,-2.2235,-2.2229,-2.2231,-2.2194,-2.2186,-2.2191,-2.2185,-2.2153,-2.2152,-2.215,-2.2213,-2.213,-2.213,-2.2131,-2.2244,-2.2247,-2.225,0,0,0,0,0,0,-2.2303,-2.2302,-2.2287,-2.2287,-2.2283,-2.2238,-2.224,-2.2231,-2.2229,-2.2188,-2.2179,-2.2197,-2.2151,-2.2149,-2.2174,-2.221,-2.2131,-2.2131,-2.2241,-2.2245,-2.2249,-2.2338,0,0,0,0,0,0,-2.2303,-2.2303,-2.2323,-2.2288,-2.2283,-2.2311,-2.2242,-2.2232,-2.223,-2.2222,-2.2192,-2.2185,-2.2149,-2.2174,-2.2175,-2.221,-2.2132,-2.2237,-2.2243,-2.2247,-2.2331,-2.2344,-2.2355,0,0,0,0,0,-2.2304,-2.235,-2.2324,-2.2324,-2.2307,-2.2313,-2.2311,-2.2269,-2.2233,-2.2253,-2.2227,-2.2186,-2.2206,-2.2177,-2.2178,-2.2213,-2.2235,-2.2241,-2.2247,-2.2326,-2.2342,-2.2355,0,0,0,0,0,0,-2.2391,-2.2344,-2.2315,-2.2351,-2.2337,-2.2299,-2.2323,-2.2286,-2.2282,-2.2275,-2.2223,-2.2217,-2.2249,-2.2233,-2.2202,-2.2265,-2.2214,-2.222,-2.2274,-2.2288,-2.23,-2.2303,-2.2132,0,0,0,0,0,-2.2414,-2.2422,-2.2381,-2.2417,-2.2411,-2.2368,-2.2369,-2.2338,-2.2321,-2.2315,-2.229,-2.2277,-2.228,-2.2283,-2.2284,-2.2329,-2.2321,-2.2353,-2.2365,-2.2375,-2.2382,-2.2405,-2.2419,-2.227,-2.227,-2.227,0,0,-2.2462,-2.2438,-2.2446,-2.2434,-2.2419,-2.2429,-2.2364,-2.2377,-2.2385,-2.2317,-2.2339,-2.2321,-2.2302,-2.2338,-2.2352,-2.2325,-2.2421,-2.2383,-2.2391,-2.2392,-2.2413,-2.2427,-2.2439,-2.2274,-2.2273,-2.2272,0,0,-2.2555,-2.2537,-2.2565,-2.2552,-2.253,-2.2501,-2.2508,-2.2476,-2.2461,-2.2482,-2.2432,-2.244,-2.2447,-2.2436,-2.2431,-2.2521,-2.2483,-2.2522,-2.2585,-2.2608,-2.262,-2.263,-2.2663,-2.2675,-2.2529,-2.2529,-2.2529,0,-2.2618,-2.2631,-2.2584,-2.2601,-2.2597,-2.2536,-2.2564,-2.2554,-2.2534,-2.2533,-2.2504,-2.2511,-2.2494,-2.2526,-2.2548,-2.2546,-2.2553,-2.2526,-2.2622,-2.2632,-2.2641,-2.2671,-2.2684,-2.2534,-2.2533,-2.2533,-2.2532,0,-2.271,-2.272,-2.2745,-2.2726,-2.2726,-2.2748,-2.2706,-2.2711,-2.268,-2.2655,-2.2677,-2.2655,-2.265,-2.2655,-2.2625,-2.2684,-2.2668,-2.2631,-2.2579,-2.2661,-2.2689,-2.27,-2.2541,-2.2539,-2.2538,-2.2537,0,0,-2.2856,-2.2812,-2.2822,-2.2813,-2.2785,-2.2792,-2.2813,-2.2807,-2.2813,-2.2801,-2.2818,-2.2825,-2.2791,-2.2785,-2.2754,-2.2774,-2.2848,-2.2734,-2.2733,-2.2757,-2.2912,-2.294,-2.2954,-2.2822,-2.2824,-2.2826,-2.2913,0,-2.2944,-2.2975,-2.2934,-2.2974,-2.2983,-2.2926,-2.2943,-2.2929,-2.2906,-2.2911,-2.2886,-2.2892,-2.2846,-2.2843,-2.286,-2.2835,-2.2878,-2.2828,-2.2838,-2.2839,-2.2845,-2.2969,-2.2999,-2.3082,-2.2924,-2.2926,-2.2927,0,-2.3049,-2.3043,-2.3084,-2.3054,-2.3056,-2.3073,-2.3065,-2.307,-2.3053,-2.3035,-2.3029,-2.2991,-2.301,-2.296,-2.2985,-2.2952,-2.2954,-2.2942,-2.2944,-2.2944,-2.2888,-2.2972,-2.3108,-2.3121,-2.2944,-2.2942,-2.2941,0,-2.3153,-2.3154,-2.3179,-2.3174,-2.3139,-2.3152,-2.3138,-2.3118,-2.3118,-2.3111,-2.3111,-2.3107,-2.3105,-2.3104,-2.3066,-2.3033,-2.3097,-2.3043,-2.3083,-2.3085,-2.31,-2.3099,-2.3238,-2.31,-2.31,-2.31,-2.31,0,-2.3255,-2.3283,-2.3225,-2.3241,-2.3271,-2.3224,-2.3255,-2.3235,-2.3218,-2.323,-2.318,-2.3192,-2.3141,-2.3148,-2.3119,-2.3145,-2.3144,-2.3131,-2.3123,-2.3136,-2.3138,-2.3136,-2.313,-2.3103,-2.3102,-2.3102,-2.3101,0,-2.3376,-2.3338,-2.3362,-2.3327,-2.3319,-2.3343,-2.3313,-2.3327,-2.3301,-2.3316,-2.3317,-2.3277,-2.3282,-2.3245,-2.3243,-2.3224,-2.3264,-2.3246,-2.327,-2.3265,-2.3308,-2.3304,-2.3451,-2.3468,-2.3319,-2.332,-2.3322,0,-2.3443,-2.3464,-2.3431,-2.3435,-2.3423,-2.343,-2.3429,-2.3384,-2.3386,-2.3368,-2.3384,-2.3385,-2.3384,-2.3396,-2.3367,-2.3366,-2.3348,-2.3399,-2.3347,-2.336,-2.3349,-2.3349,-2.3351,-2.341,-2.3412,-2.3413,-2.3415,0,-2.3568,-2.3549,-2.3549,-2.3544,-2.3545,-2.3538,-2.3529,-2.3535,-2.3486,-2.349,-2.3495,-2.3494,-2.3493,-2.3495,-2.3489,-2.3475,-2.3438,-2.3431,-2.3441,-2.3454,-2.3468,-2.3461,-2.33,-2.3428,-2.3427,-2.3426,-2.3425,-2.3425,-2.3664,-2.368,-2.3659,-2.3662,-2.365,-2.3643,-2.3654,-2.3629,-2.3632,-2.3627,-2.36,-2.361,-2.3593,-2.358,-2.3571,-2.3578,-2.3554,-2.3567,-2.3571,-2.3575,-2.3583,-2.3466,-2.3577,-2.3577,-2.3576,-2.3576,-2.3575,0,-2.3787,-2.3771,-2.3774,-2.3762,-2.3765,-2.3728,-2.3715,-2.372,-2.373,-2.3716,-2.3716,-2.3722,-2.3724,-2.3696,-2.3695,-2.3707,-2.3689,-2.3708,-2.3707,-2.3705,-2.3605,-2.3597,-2.3722,-2.3722,-2.3722,-2.3722,-2.3722,-2.3722,-2.3851,-2.3875,-2.3854,-2.3872,-2.3856,-2.3865,-2.3861,-2.3854,-2.3843,-2.3852,-2.3854,-2.3835,-2.3816,-2.3813,-2.3814,-2.3805,-2.3807,-2.3832,-2.3818,-2.3726,-2.3712,-2.3698,-2.369,-2.3833,-2.3833,-2.3917,-2.3918,-2.3919]},{"header":{"parameterUnit":"m.s-1","parameterCategory":1,"la1":30.2991,"la2":30.254,"lo1":-89.0895,"lo2":-89.0444,"dy":0.0017,"dx":0.0017,"nx":28,"ny":28,"refTime":"2024-03-10T21:00:00:Z","depth":0,"parameterNumber":3,"parameterNumberName":"V-component_of_WINDS"},"data":[0,0,0,0,0,0,0,0,0,0,0,0,0,0,0,0,0,0,0,0,0,0,0,0,0,0,0,0,0,0,0,0,0,0,0,0,0,0,0,0,0,0,0,0,0,0,0,0,0,0,0,0,0,0,0,0,0,0,-1.3714,-1.3715,0,-1.3819,-1.382,-1.3821,-1.3857,-1.3856,-1.3856,-1.3856,-1.3959,-1.3962,-1.3965,0,0,0,0,0,0,0,0,0,0,0,0,0,-1.3542,-1.3545,-1.3714,-1.3715,-1.3717,-1.3819,-1.382,-1.3821,-1.3857,-1.3856,-1.3856,-1.3855,-1.3958,-1.3962,-1.3966,0,0,0,0,0,0,0,0,0,0,0,0,0,-1.3629,-1.3546,-1.3714,-1.3747,-1.3751,-1.3818,-1.382,-1.3822,-1.3857,-1.3856,-1.3856,-1.3855,-1.3957,-1.3962,-1.3966,-1.4008,0,0,-1.3981,-1.3983,0,0,0,0,0,0,0,0,-1.3624,-1.3635,-1.3741,-1.3745,-1.3749,-1.3824,-1.3797,-1.3884,-1.3857,-1.3817,-1.3856,-1.3855,-1.3915,-1.3923,-1.3944,-1.4012,-1.4017,-1.3981,-1.3984,-1.3986,-1.3987,0,0,0,0,0,0,0,-1.3618,-1.3631,-1.3755,-1.3742,-1.3747,-1.3755,-1.3767,-1.3814,-1.3868,-1.382,-1.3823,-1.3835,-1.3917,-1.3939,-1.3946,-1.4018,-1.3981,-1.3985,-1.3988,-1.399,-1.4126,-1.4127,0,0,0,0,0,0,-1.3607,-1.3625,-1.3752,-1.3759,-1.3684,-1.3759,-1.3772,-1.3801,-1.3867,-1.3877,-1.3835,-1.3836,-1.3931,-1.3941,-1.395,-1.4003,-1.3986,-1.399,-1.3993,-1.4125,-1.4126,-1.4127,0,0,0,0,0,0,-1.3603,-1.3618,-1.3748,-1.3693,-1.371,-1.3763,-1.3795,-1.3803,-1.3825,-1.3879,-1.3888,-1.3848,-1.3931,-1.3943,-1.3993,-1.4007,-1.3993,-1.3997,-1.4124,-1.4126,-1.4127,-1.4109,0,0,0,0,0,0,-1.3598,-1.3616,-1.3633,-1.3693,-1.3713,-1.379,-1.3795,-1.3806,-1.3834,-1.3836,-1.3894,-1.3903,-1.3932,-1.3986,-1.3998,-1.4013,-1.4,-1.4123,-1.4125,-1.4126,-1.4108,-1.4109,-1.411,0,0,0,0,0,-1.3591,-1.3623,-1.3634,-1.3649,-1.3735,-1.3791,-1.3802,-1.3836,-1.3835,-1.3852,-1.3886,-1.3901,-1.4004,-1.3991,-1.4005,-1.4021,-1.4123,-1.4125,-1.4126,-1.4108,-1.4109,-1.411,0,0,0,0,0,0,-1.3562,-1.3632,-1.3644,-1.3696,-1.3738,-1.3797,-1.3819,-1.3836,-1.3878,-1.3878,-1.3917,-1.393,-1.3976,-1.4004,-1.3988,-1.4065,-1.4064,-1.4068,-1.4045,-1.4047,-1.4047,-1.404,-1.4004,0,0,0,0,0,-1.3562,-1.3602,-1.366,-1.3701,-1.3721,-1.3766,-1.3792,-1.3815,-1.3858,-1.3876,-1.3914,-1.3955,-1.3997,-1.4023,-1.4064,-1.4112,-1.4125,-1.4131,-1.4131,-1.4132,-1.4135,-1.4162,-1.4165,-1.4133,-1.4133,-1.4133,0,0,-1.3561,-1.3604,-1.3627,-1.3696,-1.3731,-1.3771,-1.3781,-1.3823,-1.3853,-1.3882,-1.3931,-1.3961,-1.4009,-1.4058,-1.4082,-1.4082,-1.4147,-1.4134,-1.4134,-1.4137,-1.4164,-1.4167,-1.417,-1.4134,-1.4134,-1.4134,0,0,-1.3581,-1.3618,-1.3656,-1.3691,-1.3743,-1.3774,-1.3782,-1.384,-1.386,-1.3911,-1.3934,-1.3969,-1.404,-1.4074,-1.41,-1.4132,-1.4147,-1.4145,-1.4149,-1.4175,-1.4177,-1.418,-1.4191,-1.4195,-1.4148,-1.4148,-1.4148,0,-1.3574,-1.3636,-1.3673,-1.3714,-1.3743,-1.3772,-1.381,-1.3842,-1.3905,-1.3924,-1.3924,-1.4014,-1.4049,-1.4106,-1.4114,-1.4134,-1.4145,-1.4138,-1.4174,-1.4177,-1.418,-1.4191,-1.4195,-1.4147,-1.4147,-1.4147,-1.4147,0,-1.3624,-1.3667,-1.3691,-1.3752,-1.3784,-1.3823,-1.3865,-1.3892,-1.3912,-1.3942,-1.3993,-1.4035,-1.4086,-1.4101,-1.412,-1.4161,-1.416,-1.4167,-1.4166,-1.4182,-1.4193,-1.4197,-1.4146,-1.4147,-1.4147,-1.4147,0,0,-1.3628,-1.371,-1.3718,-1.3746,-1.3807,-1.384,-1.388,-1.393,-1.3953,-1.3995,-1.4029,-1.4089,-1.4096,-1.4125,-1.4149,-1.4171,-1.4194,-1.4176,-1.4177,-1.4177,-1.4241,-1.4236,-1.424,-1.4204,-1.4205,-1.4206,-1.4237,0,-1.3656,-1.373,-1.3764,-1.3823,-1.3863,-1.3891,-1.3926,-1.3966,-1.3995,-1.4032,-1.4063,-1.4105,-1.4111,-1.4129,-1.4153,-1.4186,-1.4208,-1.4185,-1.4236,-1.4237,-1.4223,-1.4246,-1.4241,-1.4268,-1.4242,-1.4243,-1.4243,0,-1.3698,-1.3742,-1.3804,-1.386,-1.3878,-1.3909,-1.3958,-1.3993,-1.4039,-1.4058,-1.4092,-1.4114,-1.4156,-1.4153,-1.4212,-1.4195,-1.4218,-1.4238,-1.4239,-1.4245,-1.4241,-1.4253,-1.4278,-1.4282,-1.4251,-1.425,-1.4249,0,-1.3695,-1.3769,-1.3816,-1.3839,-1.3906,-1.3927,-1.3955,-1.4,-1.4028,-1.4071,-1.4089,-1.4135,-1.416,-1.4195,-1.4229,-1.4224,-1.4284,-1.4284,-1.43,-1.43,-1.4312,-1.431,-1.434,-1.4326,-1.4326,-1.4326,-1.4326,0,-1.3722,-1.3759,-1.3816,-1.3845,-1.3887,-1.3925,-1.3966,-1.3996,-1.4036,-1.4071,-1.4098,-1.4129,-1.4172,-1.4209,-1.4236,-1.428,-1.4291,-1.4307,-1.4313,-1.4305,-1.4302,-1.432,-1.4319,-1.4327,-1.4327,-1.4327,-1.4327,0,-1.3725,-1.3764,-1.3818,-1.3877,-1.3892,-1.3921,-1.397,-1.3999,-1.4029,-1.4073,-1.4085,-1.4132,-1.4177,-1.4214,-1.4273,-1.429,-1.4336,-1.4344,-1.4321,-1.4324,-1.4339,-1.4337,-1.4381,-1.4389,-1.437,-1.437,-1.437,0,-1.374,-1.3769,-1.3831,-1.3857,-1.3885,-1.3926,-1.3956,-1.3994,-1.4023,-1.4078,-1.4099,-1.4146,-1.4186,-1.4256,-1.4295,-1.4339,-1.4348,-1.4361,-1.4355,-1.4345,-1.4348,-1.4346,-1.4349,-1.4361,-1.4361,-1.4361,-1.4361,0,-1.3761,-1.378,-1.3821,-1.387,-1.3904,-1.3944,-1.3984,-1.4003,-1.4049,-1.408,-1.4127,-1.4157,-1.4218,-1.4264,-1.4313,-1.4341,-1.4358,-1.4363,-1.4369,-1.436,-1.4345,-1.4353,-1.4322,-1.4361,-1.4361,-1.4361,-1.4361,-1.4361,-1.3771,-1.3798,-1.3847,-1.3892,-1.3927,-1.3964,-1.3994,-1.4028,-1.4068,-1.4121,-1.4141,-1.4189,-1.4233,-1.4301,-1.4329,-1.4366,-1.4368,-1.4377,-1.438,-1.4381,-1.438,-1.434,-1.4375,-1.4375,-1.4375,-1.4375,-1.4375,0,-1.3794,-1.3826,-1.3868,-1.3924,-1.3959,-1.3974,-1.4019,-1.4048,-1.409,-1.4131,-1.4169,-1.4223,-1.4268,-1.431,-1.4357,-1.4378,-1.4387,-1.4389,-1.4388,-1.4394,-1.4376,-1.4366,-1.4381,-1.4381,-1.4381,-1.4381,-1.4381,-1.4381,-1.381,-1.3858,-1.3881,-1.3946,-1.3978,-1.4026,-1.4051,-1.4085,-1.4117,-1.4176,-1.4214,-1.4242,-1.4283,-1.4333,-1.4375,-1.4386,-1.4402,-1.4401,-1.4414,-1.4396,-1.4395,-1.4394,-1.4385,-1.4404,-1.4404,-1.443,-1.443,-1.443]}]]